Flint, MI

11:53 AM EDT on August 21, 2017 (GMT -0400)
Bishop International

Weather History for KFNT - June, 2017

Change the Weather History Date:

Monday, June 19, 2017

  Actual Average Record
Temperature  
Mean Temperature 68 °F 68 °F  
Max Temperature 76 °F 79 °F 96 °F (1995)
Min Temperature 59 °F 56 °F 44 °F (1959)
Degree Days  
Heating Degree Days 0 1  
Month to date heating degree days 24 55  
Since 1 June heating degree days 24 55  
Since 1 July heating degree days 5812 6942  
Cooling Degree Days 3 4  
Month to date cooling degree days 108 55  
Year to date cooling degree days 133 87  
Since 1 June cooling degree days 108 55  
Growing Degree Days 17 (Base 50)    
Moisture  
Dew Point 57 °F    
Average Humidity 72    
Maximum Humidity 90    
Minimum Humidity 53    
Precipitation  
Precipitation 0.39 in 0.10 in 1.70 in (1993)
Month to date precipitation 1.84 1.97  
Year to date precipitation 18.27 12.96  
Snow  
Snow 0.00 in 0.00 in 0.00 in ()
Month to date snowfall 0.0 0.0  
Since 1 June snowfall 0.0 0.0  
Since 1 July snowfall 39.4 47.4  
Snow Depth 0.00 in    
Sea Level Pressure  
Sea Level Pressure 29.76 in    
Wind  
Wind Speed 9 mph (WSW)    
Max Wind Speed 22 mph    
Max Gust Speed 26 mph    
Visibility 9 miles    
Events Rain , Thunderstorm    
T = Trace of Precipitation, MM = Missing Value Source: NWS Daily Summary

Daily Weather History Graph

Daily Weather History Graph

Search for Another Location

Airport or City:

Trip Planner

Search our weather history database for the weather conditions in past years. The results will help you decide how hot, cold, wet, or windy it might be!

Date:

Astronomy

Jun. 19, 2017 Rise Set
Actual Time 5:55 AM EDT 9:17 PM EDT
Civil Twilight 5:20 AM EDT 9:52 PM EDT
Nautical Twilight 4:34 AM EDT 10:38 PM EDT
Astronomical Twilight 3:37 AM EDT 11:35 PM EDT
Moon 2:52 AM EDT (6/19) 4:00 PM EDT (6/19)
Length of Visible Light 16h 32m
Length of Day
15h 21m
Waning Crescent, 27% of the Moon is Illuminated
Jun 19
Waning Crescent
Jun 23
New
Jun 30
First Quarter
Jul 9
Full
Jul 16
Last Quarter

Hourly Weather History & Observations

Time (EDT) Temp. Dew Point Humidity Pressure Visibility Wind Dir Wind Speed Gust Speed Precip Events Conditions
1:53 AM 63.0 °F 57.0 °F 81% 29.70 in 10.0 mi SSW 8.1 mph - N/A   Clear
2:53 AM 61.0 °F 57.0 °F 87% 29.70 in 10.0 mi WSW 5.8 mph - N/A   Clear
3:53 AM 61.0 °F 57.0 °F 87% 29.70 in 10.0 mi SW 5.8 mph - N/A   Clear
4:53 AM 61.0 °F 57.0 °F 87% 29.72 in 10.0 mi SSW 5.8 mph - N/A   Clear
5:53 AM 60.1 °F 55.9 °F 86% 29.74 in 10.0 mi SW 5.8 mph - N/A   Clear
6:53 AM 61.0 °F 57.0 °F 87% 29.76 in 10.0 mi SW 6.9 mph - N/A   Clear
7:53 AM 64.0 °F 57.9 °F 80% 29.77 in 10.0 mi SW 6.9 mph - N/A   Clear
8:53 AM 68.0 °F 57.9 °F 70% 29.77 in 10.0 mi WSW 5.8 mph - N/A   Clear
9:53 AM 71.1 °F 57.0 °F 61% 29.77 in 10.0 mi SW 9.2 mph - N/A   Clear
10:53 AM 72.0 °F 57.0 °F 59% 29.78 in 10.0 mi SW 11.5 mph - N/A   Overcast
11:53 AM 73.0 °F 55.9 °F 55% 29.78 in 10.0 mi West 15.0 mph 20.7 mph N/A   Overcast
12:53 PM 73.9 °F 55.0 °F 52% 29.77 in 10.0 mi WSW 16.1 mph 23.0 mph N/A   Mostly Cloudy
1:14 PM 73.9 °F 55.9 °F 53% 29.78 in 10.0 mi SW 15.0 mph 20.7 mph N/A Thunderstorm Mostly Cloudy
1:53 PM 68.0 °F 57.0 °F 68% 29.77 in 10.0 mi WSW 9.2 mph - 0.02 in Thunderstorm Scattered Clouds
2:11 PM 73.0 °F 59.0 °F 61% 29.77 in 10.0 mi WSW 9.2 mph - N/A   Clear
2:39 PM 70.0 °F 57.0 °F 63% 29.77 in 9.0 mi West 21.9 mph 26.5 mph N/A Thunderstorm Scattered Clouds
2:53 PM 64.0 °F 55.9 °F 75% 29.76 in 10.0 mi SW 6.9 mph - 0.03 in Rain Light Rain
3:14 PM 66.9 °F 57.0 °F 70% 29.77 in 10.0 mi WSW 8.1 mph - 0.00 in Thunderstorm Scattered Clouds
3:34 PM 66.9 °F 59.0 °F 76% 29.77 in 10.0 mi SSW 8.1 mph - 0.00 in Rain , Thunderstorm Light Thunderstorms and Rain
3:53 PM 64.0 °F 59.0 °F 84% 29.77 in 4.0 mi SSW 9.2 mph - 0.04 in Rain , Thunderstorm Rain
3:57 PM 63.0 °F 59.0 °F 87% 29.77 in 1.8 mi SSW 5.8 mph - 0.06 in Rain Heavy Rain
4:00 PM 63.0 °F 59.0 °F 87% 29.77 in 7.0 mi Calm Calm - 0.08 in Rain , Thunderstorm Rain
4:53 PM 70.0 °F 60.1 °F 71% 29.75 in 7.0 mi SSW 11.5 mph - 0.18 in Rain , Thunderstorm Rain
5:01 PM 69.1 °F 60.1 °F 73% 29.75 in 10.0 mi SW 10.4 mph - 0.00 in   Clear
5:53 PM 73.0 °F 60.1 °F 64% 29.73 in 10.0 mi WSW 8.1 mph - 0.00 in   Partly Cloudy
6:43 PM 73.0 °F 55.0 °F 53% 29.75 in 10.0 mi West 16.1 mph - N/A Thunderstorm Overcast
6:53 PM 72.0 °F 55.9 °F 57% 29.74 in 10.0 mi West 16.1 mph 24.2 mph N/A Thunderstorm Thunderstorm
7:14 PM 64.9 °F 57.0 °F 75% 29.76 in 10.0 mi NNW 6.9 mph 20.7 mph 0.12 in Rain , Thunderstorm Light Rain
7:53 PM 66.9 °F 55.9 °F 68% 29.77 in 10.0 mi North 13.8 mph - 0.12 in Thunderstorm Overcast
8:37 PM 64.0 °F 55.0 °F 73% 29.78 in 10.0 mi ENE 4.6 mph - N/A   Mostly Cloudy
8:53 PM 63.0 °F 55.9 °F 78% 29.79 in 10.0 mi NE 9.2 mph - N/A   Mostly Cloudy
9:53 PM 62.1 °F 57.0 °F 84% 29.82 in 10.0 mi NNE 6.9 mph - N/A   Mostly Cloudy
10:53 PM 60.1 °F 57.0 °F 90% 29.83 in 10.0 mi South 3.5 mph - N/A   Mostly Cloudy
11:53 PM 60.1 °F 57.0 °F 90% 29.83 in 10.0 mi SSW 4.6 mph - N/A   Mostly Cloudy